SHIJIAN-20 (SJ-20)

Last updated on Fri Sep 12 2025 00:02:49 GMT+0000 (Coordinated Universal Time)

1 44910U 19097A 25254.67062170 -.00000087 00000+0 00000+0 0 9995 2 44910 4.1987 78.4875 0002372 173.3234 59.0032 1.00107280 20904
UTC large
Height (km)
Speed (km/s)
/
Latitude / Longitude
Inclination (degrees)
Orbital Period (minutes)
Azimuth
Elevation
Range (km)
Doppler Factor

Next 0 passes for location: London (51.5072 / 0.1276)

Sorry there are no passes over London.